Time,TemperatureF,DewpointF,PressureIn,WindDirection,WindDirectionDegrees,WindSpeedMPH,WindSpeedGustMPH,Humidity,HourlyPrecipIn,Conditions,Clouds,dailyrainin,SoftwareType,DateUTC
2014-02-19 00:03:00,39.0,21.9,29.09,SE,140,0.0,0.0,50,0.00,,,0.00,Wunderground v.1.13,2014-02-19 07:03:00,
2014-02-19 00:09:00,38.9,21.8,29.09,SE,140,0.0,0.0,50,0.00,,,0.00,Wunderground v.1.13,2014-02-19 07:09:00,
2014-02-19 00:15:00,38.8,21.7,29.09,SE,140,0.0,0.0,50,0.00,,,0.00,Wunderground v.1.13,2014-02-19 07:15:00,
2014-02-19 00:21:00,38.6,22.0,29.09,SE,140,0.0,0.0,51,0.00,,,0.00,Wunderground v.1.13,2014-02-19 07:21:00,
2014-02-19 00:27:00,38.5,21.9,29.09,SE,140,0.0,0.0,51,0.00,,,0.00,Wunderground v.1.13,2014-02-19 07:27:00,
2014-02-19 00:33:00,38.3,21.7,29.09,SE,140,0.0,0.0,51,0.00,,,0.00,Wunderground v.1.13,2014-02-19 07:33:00,
2014-02-19 00:39:00,38.2,21.6,29.09,SE,140,0.0,0.0,51,0.00,,,0.00,Wunderground v.1.13,2014-02-19 07:39:00,
2014-02-19 00:45:00,38.1,21.5,29.08,SE,140,0.0,0.0,51,0.00,,,0.00,Wunderground v.1.13,2014-02-19 07:45:00,
2014-02-19 00:50:00,38.0,21.5,29.08,SE,140,0.0,0.0,51,0.00,,,0.00,Wunderground v.1.13,2014-02-19 07:50:00,
2014-02-19 00:56:00,38.0,21.5,29.07,SE,140,0.0,0.0,51,0.00,,,0.00,Wunderground v.1.13,2014-02-19 07:56:00,
2014-02-19 01:02:00,38.1,21.5,29.07,SE,140,0.0,0.0,51,0.00,,,0.00,Wunderground v.1.13,2014-02-19 08:02:00,
2014-02-19 01:08:00,38.0,21.5,29.07,SE,140,0.0,0.0,51,0.00,,,0.00,Wunderground v.1.13,2014-02-19 08:08:00,
2014-02-19 01:14:00,38.0,21.5,29.07,SE,140,0.0,0.0,51,0.00,,,0.00,Wunderground v.1.13,2014-02-19 08:14:00,
2014-02-19 01:19:00,37.9,21.4,29.07,SE,140,0.0,0.0,51,0.00,,,0.00,Wunderground v.1.13,2014-02-19 08:19:00,
2014-02-19 01:25:00,37.8,21.7,29.07,SE,140,0.0,0.0,52,0.00,,,0.00,Wunderground v.1.13,2014-02-19 08:25:00,
2014-02-19 01:31:00,37.6,21.5,29.07,SE,140,0.0,0.0,52,0.00,,,0.00,Wunderground v.1.13,2014-02-19 08:31:00,
2014-02-19 01:36:00,37.5,21.5,29.07,SE,140,0.0,0.0,52,0.00,,,0.00,Wunderground v.1.13,2014-02-19 08:36:00,
2014-02-19 01:42:00,37.3,21.7,29.06,SE,140,0.0,0.0,53,0.00,,,0.00,Wunderground v.1.13,2014-02-19 08:42:00,
2014-02-19 01:48:00,37.1,21.5,29.06,SE,140,0.0,0.0,53,0.00,,,0.00,Wunderground v.1.13,2014-02-19 08:48:00,
2014-02-19 01:54:00,37.0,21.4,29.06,SE,140,0.0,1.0,53,0.00,,,0.00,Wunderground v.1.13,2014-02-19 08:54:00,
2014-02-19 02:00:00,36.9,21.3,29.06,SE,140,0.0,0.0,53,0.00,,,0.00,Wunderground v.1.13,2014-02-19 09:00:00,
2014-02-19 02:05:00,36.8,21.7,29.06,SE,140,0.0,0.0,54,0.00,,,0.00,Wunderground v.1.13,2014-02-19 09:05:00,
2014-02-19 02:11:00,36.6,21.5,29.05,SE,140,0.0,0.0,54,0.00,,,0.00,Wunderground v.1.13,2014-02-19 09:11:00,
2014-02-19 02:16:00,36.5,21.4,29.04,SE,140,0.0,0.0,54,0.00,,,0.00,Wunderground v.1.13,2014-02-19 09:16:00,
2014-02-19 02:22:00,36.4,21.8,29.04,SE,140,0.0,0.0,55,0.00,,,0.00,Wunderground v.1.13,2014-02-19 09:22:00,
2014-02-19 02:28:00,36.6,21.5,29.04,SE,140,0.0,0.0,54,0.00,,,0.00,Wunderground v.1.13,2014-02-19 09:28:00,
2014-02-19 02:34:00,36.6,21.5,29.04,SE,140,0.0,0.0,54,0.00,,,0.00,Wunderground v.1.13,2014-02-19 09:34:00,
2014-02-19 02:40:00,36.5,21.4,29.04,SE,140,0.0,0.0,54,0.00,,,0.00,Wunderground v.1.13,2014-02-19 09:40:00,
2014-02-19 02:46:00,36.5,21.4,29.03,SE,140,0.0,0.0,54,0.00,,,0.00,Wunderground v.1.13,2014-02-19 09:46:00,
2014-02-19 02:52:00,36.7,21.6,29.03,SE,140,0.0,0.0,54,0.00,,,0.00,Wunderground v.1.13,2014-02-19 09:52:00,
2014-02-19 02:57:00,36.8,21.7,29.03,SE,140,0.0,0.0,54,0.00,,,0.00,Wunderground v.1.13,2014-02-19 09:57:00,
2014-02-19 03:03:00,36.6,21.5,29.03,SE,140,0.0,0.0,54,0.00,,,0.00,Wunderground v.1.13,2014-02-19 10:03:00,
2014-02-19 03:09:00,36.2,21.1,29.02,SE,140,0.0,0.0,54,0.00,,,0.00,Wunderground v.1.13,2014-02-19 10:09:00,
2014-02-19 03:15:00,36.0,21.4,29.02,SE,140,0.0,0.0,55,0.00,,,0.00,Wunderground v.1.13,2014-02-19 10:15:00,
2014-02-19 03:21:00,35.7,21.1,29.01,SE,140,0.0,0.0,55,0.00,,,0.00,Wunderground v.1.13,2014-02-19 10:21:00,
2014-02-19 03:27:00,35.7,21.1,29.01,SE,140,0.0,0.0,55,0.00,,,0.00,Wunderground v.1.13,2014-02-19 10:27:00,
2014-02-19 03:33:00,35.6,21.0,29.01,SE,140,0.0,0.0,55,0.00,,,0.00,Wunderground v.1.13,2014-02-19 10:33:00,
2014-02-19 03:38:00,35.6,21.0,29.01,SE,140,0.0,0.0,55,0.00,,,0.00,Wunderground v.1.13,2014-02-19 10:38:00,
2014-02-19 03:44:00,35.4,21.2,29.01,SE,141,0.0,3.0,56,0.00,,,0.00,Wunderground v.1.13,2014-02-19 10:44:00,
2014-02-19 03:50:00,35.4,21.2,29.00,SW,221,2.0,5.0,56,0.00,,,0.00,Wunderground v.1.13,2014-02-19 10:50:00,
2014-02-19 03:56:00,35.3,21.2,29.00,SW,223,4.0,5.0,56,0.00,,,0.00,Wunderground v.1.13,2014-02-19 10:56:00,
2014-02-19 04:02:00,35.2,20.6,29.00,SW,228,4.0,6.0,55,0.00,,,0.00,Wunderground v.1.13,2014-02-19 11:02:00,
2014-02-19 04:08:00,35.0,20.9,29.00,WSW,245,4.0,5.0,56,0.00,,,0.00,Wunderground v.1.13,2014-02-19 11:08:00,
2014-02-19 04:14:00,34.9,20.8,29.00,WSW,246,5.0,8.0,56,0.00,,,0.00,Wunderground v.1.13,2014-02-19 11:14:00,
2014-02-19 04:19:00,34.7,20.6,29.00,WSW,247,5.0,7.0,56,0.00,,,0.00,Wunderground v.1.13,2014-02-19 11:19:00,
2014-02-19 04:25:00,34.4,20.7,29.00,WSW,249,5.0,7.0,57,0.00,,,0.00,Wunderground v.1.13,2014-02-19 11:25:00,
2014-02-19 04:31:00,34.4,20.7,29.00,WSW,239,6.0,6.0,57,0.00,,,0.00,Wunderground v.1.13,2014-02-19 11:31:00,
2014-02-19 04:37:00,34.4,20.3,29.00,WSW,256,5.0,8.0,56,0.00,,,0.00,Wunderground v.1.13,2014-02-19 11:37:00,
2014-02-19 04:43:00,34.4,20.7,29.00,WSW,248,5.0,8.0,57,0.00,,,0.00,Wunderground v.1.13,2014-02-19 11:43:00,
2014-02-19 04:49:00,34.4,20.3,29.00,WSW,246,5.0,7.0,56,0.00,,,0.00,Wunderground v.1.13,2014-02-19 11:49:00,
2014-02-19 04:55:00,34.4,20.3,29.00,WSW,242,5.0,5.0,56,0.00,,,0.00,Wunderground v.1.13,2014-02-19 11:55:00,
2014-02-19 05:00:00,34.4,20.3,29.00,WSW,242,5.0,5.0,56,0.00,,,0.00,Wunderground v.1.13,2014-02-19 12:00:00,
2014-02-19 05:05:00,34.4,20.3,28.99,WSW,242,4.0,6.0,56,0.00,,,0.00,Wunderground v.1.13,2014-02-19 12:05:00,
2014-02-19 05:11:00,34.5,20.4,28.99,WSW,244,4.0,7.0,56,0.00,,,0.00,Wunderground v.1.13,2014-02-19 12:11:00,
2014-02-19 05:17:00,34.4,20.3,28.99,WSW,244,3.0,4.0,56,0.00,,,0.00,Wunderground v.1.13,2014-02-19 12:17:00,
2014-02-19 05:23:00,34.4,20.3,28.98,WSW,244,3.0,5.0,56,0.00,,,0.00,Wunderground v.1.13,2014-02-19 12:23:00,
2014-02-19 05:29:00,34.4,20.7,28.98,WSW,244,3.0,4.0,57,0.00,,,0.00,Wunderground v.1.13,2014-02-19 12:29:00,
2014-02-19 05:34:00,34.6,20.5,28.98,WSW,244,3.0,5.0,56,0.00,,,0.00,Wunderground v.1.13,2014-02-19 12:34:00,
2014-02-19 05:40:00,34.4,20.3,28.97,WSW,244,3.0,3.0,56,0.00,,,0.00,Wunderground v.1.13,2014-02-19 12:40:00,
2014-02-19 05:46:00,34.4,20.3,28.97,WSW,244,3.0,3.0,56,0.00,,,0.00,Wunderground v.1.13,2014-02-19 12:46:00,
2014-02-19 05:52:00,34.4,20.3,28.97,WSW,244,2.0,2.0,56,0.00,,,0.00,Wunderground v.1.13,2014-02-19 12:52:00,
2014-02-19 05:58:00,33.9,20.3,28.96,WSW,244,0.0,6.0,57,0.00,,,0.00,Wunderground v.1.13,2014-02-19 12:58:00,
2014-02-19 06:04:00,33.0,19.8,28.96,WSW,244,0.0,6.0,58,0.00,,,0.00,Wunderground v.1.13,2014-02-19 13:04:00,
2014-02-19 06:10:00,32.4,19.7,28.96,WSW,244,0.0,0.0,59,0.00,,,0.00,Wunderground v.1.13,2014-02-19 13:10:00,
2014-02-19 06:16:00,31.9,19.6,28.95,WSW,244,0.0,0.0,60,0.00,,,0.00,Wunderground v.1.13,2014-02-19 13:16:00,
2014-02-19 06:22:00,31.8,19.5,28.95,WSW,244,0.0,0.0,60,0.00,,,0.00,Wunderground v.1.13,2014-02-19 13:22:00,
2014-02-19 06:28:00,31.9,19.6,28.95,WSW,244,0.0,0.0,60,0.00,,,0.00,Wunderground v.1.13,2014-02-19 13:28:00,
2014-02-19 06:34:00,32.0,19.7,28.95,WSW,244,0.0,2.0,60,0.00,,,0.00,Wunderground v.1.13,2014-02-19 13:34:00,
2014-02-19 06:40:00,32.1,19.4,28.95,WSW,244,0.0,0.0,59,0.00,,,0.00,Wunderground v.1.13,2014-02-19 13:40:00,
2014-02-19 06:46:00,32.1,19.8,28.95,WSW,244,0.0,0.0,60,0.00,,,0.00,Wunderground v.1.13,2014-02-19 13:46:00,
2014-02-19 06:52:00,32.1,19.4,28.94,WSW,244,0.0,0.0,59,0.00,,,0.00,Wunderground v.1.13,2014-02-19 13:52:00,
2014-02-19 06:58:00,31.9,19.6,28.94,WSW,244,0.0,0.0,60,0.00,,,0.00,Wunderground v.1.13,2014-02-19 13:58:00,
2014-02-19 07:04:00,32.2,19.5,28.94,WSW,244,0.0,1.0,59,0.00,,,0.00,Wunderground v.1.13,2014-02-19 14:04:00,
2014-02-19 07:10:00,32.5,19.7,28.93,WSW,244,0.0,0.0,59,0.00,,,0.00,Wunderground v.1.13,2014-02-19 14:10:00,
2014-02-19 07:16:00,32.6,19.8,28.94,WSW,244,0.0,0.0,59,0.00,,,0.00,Wunderground v.1.13,2014-02-19 14:16:00,
2014-02-19 07:21:00,33.0,19.8,28.93,WSW,244,0.0,0.0,58,0.00,,,0.00,Wunderground v.1.13,2014-02-19 14:21:00,
2014-02-19 07:27:00,33.7,20.9,28.93,WSW,244,0.0,0.0,59,0.00,,,0.00,Wunderground v.1.13,2014-02-19 14:27:00,
2014-02-19 07:33:00,34.1,20.4,28.94,WSW,244,0.0,0.0,57,0.00,,,0.00,Wunderground v.1.13,2014-02-19 14:33:00,
2014-02-19 07:39:00,34.4,19.9,28.94,WSW,243,1.0,3.0,55,0.00,,,0.00,Wunderground v.1.13,2014-02-19 14:39:00,
2014-02-19 07:45:00,35.5,20.5,28.93,WSW,244,0.0,0.0,54,0.00,,,0.00,Wunderground v.1.13,2014-02-19 14:45:00,
2014-02-19 07:51:00,36.3,20.8,28.93,WSW,244,0.0,3.0,53,0.00,,,0.00,Wunderground v.1.13,2014-02-19 14:51:00,
2014-02-19 07:57:00,37.0,21.0,28.93,WSW,244,0.0,0.0,52,0.00,,,0.00,Wunderground v.1.13,2014-02-19 14:57:00,
2014-02-19 08:02:00,38.1,21.5,28.93,WSW,244,0.0,3.0,51,0.00,,,0.00,Wunderground v.1.13,2014-02-19 15:02:00,
2014-02-19 08:08:00,38.6,21.5,28.93,WNW,282,1.0,2.0,50,0.00,,,0.00,Wunderground v.1.13,2014-02-19 15:08:00,
2014-02-19 08:14:00,39.1,21.5,28.93,WNW,282,0.0,1.0,49,0.00,,,0.00,Wunderground v.1.13,2014-02-19 15:14:00,
2014-02-19 08:20:00,39.6,22.0,28.93,WNW,282,0.0,1.0,49,0.00,,,0.00,Wunderground v.1.13,2014-02-19 15:20:00,
2014-02-19 08:26:00,39.3,21.7,28.93,WNW,282,0.0,0.0,49,0.00,,,0.00,Wunderground v.1.13,2014-02-19 15:26:00,
2014-02-19 08:32:00,39.5,21.9,28.92,West,281,0.0,0.0,49,0.00,,,0.00,Wunderground v.1.13,2014-02-19 15:32:00,
2014-02-19 08:38:00,39.4,21.8,28.92,WNW,282,1.0,2.0,49,0.00,,,0.00,Wunderground v.1.13,2014-02-19 15:38:00,
2014-02-19 08:43:00,39.2,22.1,28.92,WNW,299,2.0,3.0,50,0.00,,,0.00,Wunderground v.1.13,2014-02-19 15:43:00,
2014-02-19 08:48:00,39.2,21.6,28.92,WNW,299,2.0,3.0,49,0.00,,,0.00,Wunderground v.1.13,2014-02-19 15:48:00,
2014-02-19 08:54:00,39.2,21.6,28.92,WNW,299,2.0,3.0,49,0.00,,,0.00,Wunderground v.1.13,2014-02-19 15:54:00,
2014-02-19 09:00:00,39.8,22.2,28.91,WNW,292,1.0,4.0,49,0.00,,,0.00,Wunderground v.1.13,2014-02-19 16:00:00,
2014-02-19 09:05:00,40.1,22.0,28.91,East,80,1.0,4.0,48,0.00,,,0.00,Wunderground v.1.13,2014-02-19 16:05:00,
2014-02-19 09:11:00,40.4,22.2,28.91,East,83,2.0,2.0,48,0.00,,,0.00,Wunderground v.1.13,2014-02-19 16:11:00,
2014-02-19 09:14:00,40.5,21.8,28.91,East,84,2.0,2.0,47,0.00,,,0.00,Wunderground v.1.13,2014-02-19 16:14:00,
2014-02-19 09:20:00,41.4,22.7,28.90,East,83,0.0,0.0,47,0.00,,,0.00,Wunderground v.1.13,2014-02-19 16:20:00,
2014-02-19 09:26:00,42.5,23.7,28.90,East,84,1.0,2.0,47,0.00,,,0.00,Wunderground v.1.13,2014-02-19 16:26:00,
2014-02-19 09:32:00,42.0,22.7,28.90,ESE,103,2.0,2.0,46,0.00,,,0.00,Wunderground v.1.13,2014-02-19 16:32:00,
2014-02-19 09:38:00,41.5,22.7,28.90,ESE,105,3.0,3.0,47,0.00,,,0.00,Wunderground v.1.13,2014-02-19 16:38:00,
2014-02-19 09:43:00,41.5,22.7,28.90,East,95,3.0,6.0,47,0.00,,,0.00,Wunderground v.1.13,2014-02-19 16:43:00,
2014-02-19 09:49:00,41.8,24.0,28.89,East,96,2.0,3.0,49,0.00,,,0.00,Wunderground v.1.13,2014-02-19 16:49:00,
2014-02-19 09:55:00,43.3,23.9,28.88,East,99,1.0,1.0,46,0.00,,,0.00,Wunderground v.1.13,2014-02-19 16:55:00,
2014-02-19 10:00:00,44.0,24.5,28.89,East,101,1.0,7.0,46,0.00,,,0.00,Wunderground v.1.13,2014-02-19 17:00:00,
2014-02-19 10:05:00,43.9,23.9,28.88,ESE,113,2.0,2.0,45,0.00,,,0.00,Wunderground v.1.13,2014-02-19 17:05:00,
2014-02-19 10:11:00,44.2,24.2,28.88,ESE,114,3.0,7.0,45,0.00,,,0.00,Wunderground v.1.13,2014-02-19 17:11:00,
2014-02-19 10:16:00,44.1,23.6,28.87,East,95,4.0,8.0,44,0.00,,,0.00,Wunderground v.1.13,2014-02-19 17:16:00,
2014-02-19 10:22:00,44.7,24.6,28.87,ESE,115,4.0,4.0,45,0.00,,,0.00,Wunderground v.1.13,2014-02-19 17:22:00,
2014-02-19 10:28:00,45.4,24.7,28.86,East,80,3.0,5.0,44,0.00,,,0.00,Wunderground v.1.13,2014-02-19 17:28:00,
2014-02-19 10:33:00,45.0,24.4,28.86,East,94,3.0,7.0,44,0.00,,,0.00,Wunderground v.1.13,2014-02-19 17:33:00,
2014-02-19 10:39:00,44.6,24.0,28.86,ENE,71,4.0,6.0,44,0.00,,,0.00,Wunderground v.1.13,2014-02-19 17:39:00,
2014-02-19 10:45:00,45.3,24.6,28.85,East,101,4.0,7.0,44,0.00,,,0.00,Wunderground v.1.13,2014-02-19 17:45:00,
2014-02-19 10:50:00,45.7,25.0,28.85,ENE,60,5.0,6.0,44,0.00,,,0.00,Wunderground v.1.13,2014-02-19 17:50:00,
2014-02-19 10:56:00,46.0,24.7,28.84,ESE,121,4.0,4.0,43,0.00,,,0.00,Wunderground v.1.13,2014-02-19 17:56:00,
2014-02-19 11:02:00,47.2,25.3,28.84,ESE,119,3.0,4.0,42,0.00,,,0.00,Wunderground v.1.13,2014-02-19 18:02:00,
2014-02-19 11:08:00,47.5,24.9,28.83,ENE,78,2.0,4.0,41,0.00,,,0.00,Wunderground v.1.13,2014-02-19 18:08:00,
2014-02-19 11:14:00,48.1,25.5,28.82,ENE,68,3.0,6.0,41,0.00,,,0.00,Wunderground v.1.13,2014-02-19 18:14:00,
2014-02-19 11:20:00,49.2,25.9,28.82,East,83,5.0,9.0,40,0.00,,,0.00,Wunderground v.1.13,2014-02-19 18:20:00,
2014-02-19 11:26:00,49.0,24.5,28.82,East,95,5.0,5.0,38,0.00,,,0.00,Wunderground v.1.13,2014-02-19 18:26:00,
2014-02-19 11:31:00,49.2,24.6,28.81,ENE,71,4.0,5.0,38,0.00,,,0.00,Wunderground v.1.13,2014-02-19 18:31:00,
2014-02-19 11:37:00,50.2,24.9,28.80,East,95,3.0,3.0,37,0.00,,,0.00,Wunderground v.1.13,2014-02-19 18:37:00,
2014-02-19 11:43:00,51.2,23.0,28.79,NE,41,3.0,4.0,33,0.00,,,0.00,Wunderground v.1.13,2014-02-19 18:43:00,
2014-02-19 11:49:00,54.1,25.6,28.79,ESE,105,4.0,6.0,33,0.00,,,0.00,Wunderground v.1.13,2014-02-19 18:49:00,
2014-02-19 11:55:00,54.6,23.7,28.78,ENE,72,4.0,8.0,30,0.00,,,0.00,Wunderground v.1.13,2014-02-19 18:55:00,
2014-02-19 12:01:00,56.6,25.5,28.77,East,82,6.0,11.0,30,0.00,,,0.00,Wunderground v.1.13,2014-02-19 19:01:00,
2014-02-19 12:07:00,56.5,22.9,28.77,East,96,7.0,11.0,27,0.00,,,0.00,Wunderground v.1.13,2014-02-19 19:07:00,
2014-02-19 12:12:00,57.7,23.0,28.76,WSW,241,6.0,8.0,26,0.00,,,0.00,Wunderground v.1.13,2014-02-19 19:12:00,
2014-02-19 12:18:00,59.0,22.2,28.76,SW,228,4.0,11.0,24,0.00,,,0.00,Wunderground v.1.13,2014-02-19 19:18:00,
2014-02-19 12:24:00,59.8,22.9,28.75,WNW,302,5.0,12.0,24,0.00,,,0.00,Wunderground v.1.13,2014-02-19 19:24:00,
2014-02-19 12:30:00,59.8,22.9,28.75,NNW,348,7.0,10.0,24,0.00,,,0.00,Wunderground v.1.13,2014-02-19 19:30:00,
2014-02-19 12:35:00,59.0,22.2,28.75,NNE,32,9.0,9.0,24,0.00,,,0.00,Wunderground v.1.13,2014-02-19 19:35:00,
2014-02-19 12:41:00,59.4,22.6,28.75,WNW,294,8.0,9.0,24,0.00,,,0.00,Wunderground v.1.13,2014-02-19 19:41:00,
2014-02-19 12:47:00,59.1,22.3,28.74,West,269,9.0,14.0,24,0.00,,,0.00,Wunderground v.1.13,2014-02-19 19:47:00,
2014-02-19 12:53:00,59.0,22.2,28.74,NNW,341,10.0,15.0,24,0.00,,,0.00,Wunderground v.1.13,2014-02-19 19:53:00,
2014-02-19 12:59:00,59.0,22.2,28.74,NNW,330,10.0,12.0,24,0.00,,,0.00,Wunderground v.1.13,2014-02-19 19:59:00,
2014-02-19 13:05:00,59.0,22.2,28.74,SSE,161,10.0,10.0,24,0.00,,,0.00,Wunderground v.1.13,2014-02-19 20:05:00,
2014-02-19 13:11:00,58.9,22.1,28.73,West,261,11.0,11.0,24,0.00,,,0.00,Wunderground v.1.13,2014-02-19 20:11:00,
2014-02-19 13:17:00,58.5,22.8,28.73,SSW,211,10.0,19.0,25,0.00,,,0.00,Wunderground v.1.13,2014-02-19 20:17:00,
2014-02-19 13:23:00,58.5,22.8,28.74,NW,306,10.0,13.0,25,0.00,,,0.00,Wunderground v.1.13,2014-02-19 20:23:00,
2014-02-19 13:29:00,58.5,22.8,28.73,NNW,348,11.0,16.0,25,0.00,,,0.00,Wunderground v.1.13,2014-02-19 20:29:00,
2014-02-19 13:34:00,58.6,22.8,28.73,North,355,10.0,22.0,25,0.00,,,0.00,Wunderground v.1.13,2014-02-19 20:34:00,
2014-02-19 13:40:00,58.6,23.8,28.71,SE,138,9.0,9.0,26,0.00,,,0.00,Wunderground v.1.13,2014-02-19 20:40:00,
2014-02-19 13:46:00,58.4,23.6,28.72,WNW,302,9.0,9.0,26,0.00,,,0.00,Wunderground v.1.13,2014-02-19 20:46:00,
2014-02-19 13:52:00,58.7,23.9,28.71,WNW,303,9.0,12.0,26,0.00,,,0.00,Wunderground v.1.13,2014-02-19 20:52:00,
2014-02-19 13:58:00,59.0,23.2,28.72,SSE,155,7.0,16.0,25,0.00,,,0.00,Wunderground v.1.13,2014-02-19 20:58:00,
2014-02-19 14:04:00,59.0,23.2,28.72,North,355,7.0,19.0,25,0.00,,,0.00,Wunderground v.1.13,2014-02-19 21:04:00,
2014-02-19 14:10:00,58.5,22.8,28.71,East,95,9.0,9.0,25,0.00,,,0.00,Wunderground v.1.13,2014-02-19 21:10:00,
2014-02-19 14:15:00,58.8,23.0,28.70,NNW,339,9.0,9.0,25,0.00,,,0.00,Wunderground v.1.13,2014-02-19 21:15:00,
2014-02-19 14:21:00,59.0,23.2,28.70,ENE,67,9.0,13.0,25,0.00,,,0.00,Wunderground v.1.13,2014-02-19 21:21:00,
2014-02-19 14:27:00,59.0,23.2,28.69,SSE,160,7.0,13.0,25,0.00,,,0.00,Wunderground v.1.13,2014-02-19 21:27:00,
2014-02-19 14:33:00,59.0,23.2,28.69,South,173,7.0,16.0,25,0.00,,,0.00,Wunderground v.1.13,2014-02-19 21:33:00,
2014-02-19 14:39:00,59.1,24.2,28.68,SSE,162,6.0,9.0,26,0.00,,,0.00,Wunderground v.1.13,2014-02-19 21:39:00,
2014-02-19 14:45:00,59.5,23.6,28.68,SW,227,6.0,8.0,25,0.00,,,0.00,Wunderground v.1.13,2014-02-19 21:45:00,
2014-02-19 14:51:00,59.3,23.4,28.68,West,264,7.0,7.0,25,0.00,,,0.00,Wunderground v.1.13,2014-02-19 21:51:00,
2014-02-19 14:56:00,59.3,23.4,28.67,South,183,7.0,29.0,25,0.00,,,0.00,Wunderground v.1.13,2014-02-19 21:56:00,
2014-02-19 15:02:00,59.9,23.9,28.67,SSE,152,5.0,29.0,25,0.00,,,0.00,Wunderground v.1.13,2014-02-19 22:02:00,
2014-02-19 15:08:00,60.1,24.1,28.66,South,184,3.0,4.0,25,0.00,,,0.00,Wunderground v.1.13,2014-02-19 22:08:00,
2014-02-19 15:14:00,60.3,23.3,28.66,East,88,1.0,6.0,24,0.00,,,0.00,Wunderground v.1.13,2014-02-19 22:14:00,
2014-02-19 15:20:00,60.0,23.1,28.66,NW,320,3.0,4.0,24,0.00,,,0.00,Wunderground v.1.13,2014-02-19 22:20:00,
2014-02-19 15:26:00,60.1,22.1,28.65,WNW,300,4.0,13.0,23,0.00,,,0.00,Wunderground v.1.13,2014-02-19 22:26:00,
2014-02-19 15:32:00,59.6,22.7,28.65,North,5,6.0,7.0,24,0.00,,,0.00,Wunderground v.1.13,2014-02-19 22:32:00,
2014-02-19 15:38:00,59.2,22.4,28.65,WNW,302,6.0,11.0,24,0.00,,,0.00,Wunderground v.1.13,2014-02-19 22:38:00,
2014-02-19 15:43:00,58.7,22.0,28.65,NW,314,6.0,10.0,24,0.00,,,0.00,Wunderground v.1.13,2014-02-19 22:43:00,
2014-02-19 15:49:00,58.0,22.3,28.66,SSW,194,5.0,12.0,25,0.00,,,0.00,Wunderground v.1.13,2014-02-19 22:49:00,
2014-02-19 15:55:00,57.6,22.9,28.66,NE,42,6.0,6.0,26,0.00,,,0.00,Wunderground v.1.13,2014-02-19 22:55:00,
2014-02-19 16:01:00,56.5,24.6,28.66,NE,34,8.0,13.0,29,0.00,,,0.00,Wunderground v.1.13,2014-02-19 23:01:00,
2014-02-19 16:07:00,55.4,24.4,28.67,NW,309,10.0,11.0,30,0.00,,,0.00,Wunderground v.1.13,2014-02-19 23:07:00,
2014-02-19 16:13:00,54.7,25.4,28.67,WSW,256,9.0,17.0,32,0.00,,,0.00,Wunderground v.1.13,2014-02-19 23:13:00,
2014-02-19 16:19:00,53.5,25.1,28.67,NW,318,8.0,13.0,33,0.00,,,0.00,Wunderground v.1.13,2014-02-19 23:19:00,
2014-02-19 16:25:00,53.3,24.9,28.67,West,277,7.0,9.0,33,0.00,,,0.00,Wunderground v.1.13,2014-02-19 23:25:00,
2014-02-19 16:30:00,53.2,24.8,28.67,NW,323,7.0,18.0,33,0.00,,,0.00,Wunderground v.1.13,2014-02-19 23:30:00,
2014-02-19 16:36:00,53.1,25.4,28.67,WNW,296,9.0,10.0,34,0.00,,,0.00,Wunderground v.1.13,2014-02-19 23:36:00,
2014-02-19 16:42:00,53.0,25.3,28.66,NNW,329,8.0,9.0,34,0.00,,,0.00,Wunderground v.1.13,2014-02-19 23:42:00,
2014-02-19 16:48:00,52.8,25.9,28.67,NNW,330,8.0,10.0,35,0.00,,,0.00,Wunderground v.1.13,2014-02-19 23:48:00,
2014-02-19 16:54:00,52.4,26.9,28.68,ESE,105,8.0,12.0,37,0.00,,,0.00,Wunderground v.1.13,2014-02-19 23:54:00,
2014-02-19 17:00:00,51.7,26.9,28.68,ENE,76,8.0,24.0,38,0.00,,,0.00,Wunderground v.1.13,2014-02-20 00:00:00,
2014-02-19 17:05:00,51.5,27.3,28.68,ESE,111,8.0,8.0,39,0.00,,,0.00,Wunderground v.1.13,2014-02-20 00:05:00,
2014-02-19 17:10:00,51.4,27.2,28.68,East,96,6.0,6.0,39,0.00,,,0.00,Wunderground v.1.13,2014-02-20 00:10:00,
2014-02-19 17:16:00,51.1,27.0,28.67,West,274,6.0,6.0,39,0.00,,,0.00,Wunderground v.1.13,2014-02-20 00:16:00,
2014-02-19 17:22:00,50.8,27.3,28.67,East,82,6.0,9.0,40,0.00,,,0.00,Wunderground v.1.13,2014-02-20 00:22:00,
2014-02-19 17:28:00,50.6,27.1,28.67,ENE,57,6.0,9.0,40,0.00,,,0.00,Wunderground v.1.13,2014-02-20 00:28:00,
2014-02-19 17:34:00,50.3,26.9,28.66,NW,326,4.0,5.0,40,0.00,,,0.00,Wunderground v.1.13,2014-02-20 00:34:00,
2014-02-19 17:40:00,50.0,27.2,28.66,SSW,194,4.0,5.0,41,0.00,,,0.00,Wunderground v.1.13,2014-02-20 00:40:00,
2014-02-19 17:46:00,49.6,26.8,28.66,East,90,4.0,4.0,41,0.00,,,0.00,Wunderground v.1.13,2014-02-20 00:46:00,
2014-02-19 17:52:00,49.2,27.6,28.66,SE,134,4.0,6.0,43,0.00,,,0.00,Wunderground v.1.13,2014-02-20 00:52:00,
2014-02-19 17:58:00,48.9,27.4,28.66,SE,130,3.0,12.0,43,0.00,,,0.00,Wunderground v.1.13,2014-02-20 00:58:00,
2014-02-19 18:03:00,48.7,27.2,28.65,ENE,78,3.0,12.0,43,0.00,,,0.00,Wunderground v.1.13,2014-02-20 01:03:00,
2014-02-19 18:09:00,48.5,27.6,28.65,South,180,3.0,4.0,44,0.00,,,0.00,Wunderground v.1.13,2014-02-20 01:09:00,
2014-02-19 18:15:00,48.2,27.3,28.65,SE,128,2.0,5.0,44,0.00,,,0.00,Wunderground v.1.13,2014-02-20 01:15:00,
2014-02-19 18:21:00,48.1,27.2,28.65,SE,130,2.0,3.0,44,0.00,,,0.00,Wunderground v.1.13,2014-02-20 01:21:00,
2014-02-19 18:27:00,48.0,27.1,28.65,West,268,1.0,3.0,44,0.00,,,0.00,Wunderground v.1.13,2014-02-20 01:27:00,
2014-02-19 18:33:00,48.0,27.1,28.65,West,268,1.0,2.0,44,0.00,,,0.00,Wunderground v.1.13,2014-02-20 01:33:00,
2014-02-19 18:39:00,47.9,27.0,28.65,West,268,1.0,3.0,44,0.00,,,0.00,Wunderground v.1.13,2014-02-20 01:39:00,
2014-02-19 18:44:00,47.8,26.9,28.65,West,268,1.0,1.0,44,0.00,,,0.00,Wunderground v.1.13,2014-02-20 01:44:00,
2014-02-19 18:50:00,47.5,26.6,28.65,West,268,0.0,0.0,44,0.00,,,0.00,Wunderground v.1.13,2014-02-20 01:50:00,
2014-02-19 18:56:00,47.2,26.9,28.65,West,268,0.0,4.0,45,0.00,,,0.00,Wunderground v.1.13,2014-02-20 01:56:00,
2014-02-19 19:02:00,46.8,27.1,28.65,WNW,290,1.0,4.0,46,0.00,,,0.00,Wunderground v.1.13,2014-02-20 02:02:00,
2014-02-19 19:08:00,46.6,26.9,28.65,West,278,2.0,7.0,46,0.00,,,0.00,Wunderground v.1.13,2014-02-20 02:08:00,
2014-02-19 19:14:00,46.7,27.0,28.66,WSW,240,3.0,8.0,46,0.00,,,0.00,Wunderground v.1.13,2014-02-20 02:14:00,
2014-02-19 19:20:00,46.9,27.7,28.66,WSW,252,4.0,4.0,47,0.00,,,0.00,Wunderground v.1.13,2014-02-20 02:20:00,
2014-02-19 19:26:00,46.9,27.2,28.66,WNW,287,2.0,3.0,46,0.00,,,0.00,Wunderground v.1.13,2014-02-20 02:26:00,
2014-02-19 19:32:00,46.8,27.1,28.67,WNW,287,0.0,1.0,46,0.00,,,0.00,Wunderground v.1.13,2014-02-20 02:32:00,
2014-02-19 19:38:00,47.5,28.3,28.66,WNW,288,3.0,12.0,47,0.00,,,0.00,Wunderground v.1.13,2014-02-20 02:38:00,
2014-02-19 19:43:00,48.0,29.2,28.68,WSW,252,7.0,11.0,48,0.00,,,0.00,Wunderground v.1.13,2014-02-20 02:43:00,
2014-02-19 19:49:00,47.9,29.1,28.67,ENE,76,6.0,8.0,48,0.00,,,0.00,Wunderground v.1.13,2014-02-20 02:49:00,
2014-02-19 19:55:00,46.3,29.6,28.68,SE,131,8.0,9.0,52,0.00,,,0.00,Wunderground v.1.13,2014-02-20 02:55:00,
2014-02-19 20:01:00,44.5,29.8,28.68,ESE,105,9.0,9.0,56,0.00,,,0.00,Wunderground v.1.13,2014-02-20 03:01:00,
2014-02-19 20:07:00,43.1,30.1,28.68,SSE,167,8.0,19.0,60,0.00,,,0.00,Wunderground v.1.13,2014-02-20 03:07:00,
2014-02-19 20:13:00,42.3,31.0,28.67,South,184,8.0,14.0,64,0.00,,,0.00,Wunderground v.1.13,2014-02-20 03:13:00,
2014-02-19 20:19:00,41.7,31.5,28.69,East,89,9.0,13.0,67,0.00,,,0.00,Wunderground v.1.13,2014-02-20 03:19:00,
2014-02-19 20:24:00,41.0,32.0,28.70,West,264,10.0,14.0,70,0.00,,,0.00,Wunderground v.1.13,2014-02-20 03:24:00,
2014-02-19 20:29:00,40.9,31.5,28.69,SE,137,9.0,18.0,69,0.00,,,0.00,Wunderground v.1.13,2014-02-20 03:29:00,
2014-02-19 20:35:00,41.6,30.7,28.67,SSE,150,9.0,9.0,65,0.00,,,0.00,Wunderground v.1.13,2014-02-20 03:35:00,
2014-02-19 20:41:00,42.2,31.3,28.68,South,179,6.0,7.0,65,0.00,,,0.00,Wunderground v.1.13,2014-02-20 03:41:00,
2014-02-19 20:47:00,42.2,31.3,28.68,SSE,161,4.0,8.0,65,0.00,,,0.00,Wunderground v.1.13,2014-02-20 03:47:00,
2014-02-19 20:53:00,42.2,30.5,28.68,East,83,5.0,7.0,63,0.00,,,0.00,Wunderground v.1.13,2014-02-20 03:53:00,
2014-02-19 20:59:00,43.0,30.1,28.69,WNW,302,5.0,11.0,60,0.00,,,0.00,Wunderground v.1.13,2014-02-20 03:59:00,
2014-02-19 21:05:00,43.5,30.1,28.70,NNW,330,5.0,5.0,59,0.00,,,0.00,Wunderground v.1.13,2014-02-20 04:05:00,
2014-02-19 21:11:00,43.7,29.5,28.73,North,9,6.0,10.0,57,0.00,,,0.00,Wunderground v.1.13,2014-02-20 04:11:00,
2014-02-19 21:17:00,41.6,28.7,28.72,NE,46,8.0,8.0,60,0.00,,,0.00,Wunderground v.1.13,2014-02-20 04:17:00,
2014-02-19 21:23:00,40.7,27.9,28.73,NNE,13,6.0,7.0,60,0.00,,,0.01,Wunderground v.1.13,2014-02-20 04:23:00,
2014-02-19 21:28:00,40.5,28.1,28.72,NE,49,6.0,9.0,61,0.00,,,0.01,Wunderground v.1.13,2014-02-20 04:28:00,
2014-02-19 21:34:00,40.4,28.0,28.71,SE,144,7.0,16.0,61,0.00,,,0.01,Wunderground v.1.13,2014-02-20 04:34:00,
2014-02-19 21:40:00,39.8,28.6,28.71,SE,134,9.0,10.0,64,0.00,,,0.01,Wunderground v.1.13,2014-02-20 04:40:00,
2014-02-19 21:46:00,39.3,27.0,28.69,ENE,65,9.0,9.0,61,0.00,,,0.01,Wunderground v.1.13,2014-02-20 04:46:00,
2014-02-19 21:51:00,40.3,25.4,28.70,ESE,110,7.0,13.0,55,0.00,,,0.01,Wunderground v.1.13,2014-02-20 04:51:00,
2014-02-19 21:56:00,41.1,25.3,28.70,ENE,71,6.0,9.0,53,0.00,,,0.01,Wunderground v.1.13,2014-02-20 04:56:00,
2014-02-19 22:01:00,41.5,25.2,28.70,North,5,6.0,9.0,52,0.00,,,0.01,Wunderground v.1.13,2014-02-20 05:01:00,
2014-02-19 22:04:00,41.6,25.3,28.70,SW,236,6.0,10.0,52,0.00,,,0.01,Wunderground v.1.13,2014-02-20 05:04:00,
2014-02-19 22:05:00,41.6,25.3,28.70,NE,54,6.0,6.0,52,0.00,,,0.01,Wunderground v.1.13,2014-02-20 05:05:00,
2014-02-19 22:06:00,41.6,25.3,28.70,North,360,6.0,6.0,52,0.00,,,0.01,Wunderground v.1.13,2014-02-20 05:06:00,
2014-02-19 22:08:00,41.6,25.3,28.70,WNW,298,6.0,12.0,52,0.00,,,0.01,Wunderground v.1.13,2014-02-20 05:08:00,
2014-02-19 22:11:00,41.8,24.5,28.70,North,349,6.0,8.0,50,0.00,,,0.01,Wunderground v.1.13,2014-02-20 05:11:00,
2014-02-19 22:16:00,42.4,24.6,28.70,NNE,25,8.0,13.0,49,0.00,,,0.01,Wunderground v.1.13,2014-02-20 05:16:00,
2014-02-19 22:22:00,42.3,25.0,28.70,NNE,22,8.0,9.0,50,0.00,,,0.01,Wunderground v.1.13,2014-02-20 05:22:00,
2014-02-19 22:28:00,42.0,24.7,28.70,SE,138,6.0,10.0,50,0.00,,,0.01,Wunderground v.1.13,2014-02-20 05:28:00,
2014-02-19 22:34:00,42.0,24.2,28.71,North,360,7.0,7.0,49,0.00,,,0.01,Wunderground v.1.13,2014-02-20 05:34:00,
2014-02-19 22:40:00,41.8,25.0,28.72,NNE,32,5.0,5.0,51,0.00,,,0.01,Wunderground v.1.13,2014-02-20 05:40:00,
2014-02-19 22:46:00,41.6,24.8,28.73,WNW,288,3.0,4.0,51,0.00,,,0.01,Wunderground v.1.13,2014-02-20 05:46:00,
2014-02-19 22:52:00,41.5,24.2,28.74,NNW,346,2.0,5.0,50,0.00,,,0.01,Wunderground v.1.13,2014-02-20 05:52:00,
2014-02-19 22:58:00,41.3,22.6,28.75,North,349,4.0,7.0,47,0.00,,,0.01,Wunderground v.1.13,2014-02-20 05:58:00,
2014-02-19 23:03:00,41.1,19.7,28.75,NNE,27,6.0,10.0,42,0.00,,,0.01,Wunderground v.1.13,2014-02-20 06:03:00,
2014-02-19 23:09:00,40.9,18.4,28.75,NNW,343,7.0,10.0,40,0.00,,,0.01,Wunderground v.1.13,2014-02-20 06:09:00,
2014-02-19 23:15:00,40.8,17.7,28.76,NNE,19,7.0,7.0,39,0.00,,,0.01,Wunderground v.1.13,2014-02-20 06:15:00,
2014-02-19 23:21:00,40.7,17.6,28.76,NW,322,6.0,6.0,39,0.00,,,0.01,Wunderground v.1.13,2014-02-20 06:21:00,
2014-02-19 23:27:00,40.6,16.9,28.77,NW,321,5.0,10.0,38,0.00,,,0.01,Wunderground v.1.13,2014-02-20 06:27:00,
2014-02-19 23:33:00,40.5,17.5,28.77,WNW,302,4.0,5.0,39,0.00,,,0.01,Wunderground v.1.13,2014-02-20 06:33:00,
2014-02-19 23:39:00,40.4,17.4,28.77,WNW,287,4.0,9.0,39,0.00,,,0.01,Wunderground v.1.13,2014-02-20 06:39:00,
2014-02-19 23:45:00,40.3,16.7,28.77,NNW,337,4.0,4.0,38,0.00,,,0.01,Wunderground v.1.13,2014-02-20 06:45:00,
2014-02-19 23:50:00,40.2,16.6,28.78,NW,326,4.0,4.0,38,0.00,,,0.01,Wunderground v.1.13,2014-02-20 06:50:00,
2014-02-19 23:56:00,40.2,16.6,28.78,NNE,17,2.0,11.0,38,0.00,,,0.01,Wunderground v.1.13,2014-02-20 06:56:00,